Other Public Products
Issued by NWS Charleston, SC

Current Version | Previous Version | Graphics & Text | Print | Product List | Glossary On
Versions: 1 2 3 4 5 6 7 8 9 10 11 12 13 14 15 16 17 18 19 20 21 22 23 24 25 26 27 28 29 30 31 32 33 34 35 36 37 38 39 40 41 42 43 44 45 46 47 48 49 50
000 FPUS82 KCHS 221927 OPUCHS TEST...KCHS/KSAV Gateway Observations...TEST National Weather Service Charleston SC 300 PM EDT SUN OCT 22 2017 NOTE: "fair" indicates few or no clouds below 12,000 feet with no significant weather and/or obstructions to visibility. SCZ050-WAZ558-NCZ071-TXZ119-213-PAZ071-DCZ001-FLZ074-172-MI076- NYZ176-178-MAZ016-IL014-TNZ027-NJZ106-GAZ044-MD014-222000- ...Gateway Observations for Charleston International... CITY SKY/WX TMP DP RH WIND PRES REMARKS Chas Airport LGT RAIN 75 70 84 E14 30.22F Seattle PTSUNNY 58 49 72 SW12 30.17R Charlotte PTSUNNY 78 58 49 E9 30.26F Dallas DFW MOSUNNY 74 40 29 N22 30.14F Dallas Love MOSUNNY 72 47 40 N17 30.15F Philladelphia PTSUNNY 75 47 36 SE5 30.35F Wash National PTSUNNY 76 55 48 S8 30.32F Baltimore PTSUNNY 74 47 38 SE6 30.33F Miami CLOUDY 86 74 67 SE17 30.06F HX 94 Detroit MOSUNNY 76 57 51 S17 30.08F Newark PTSUNNY 74 46 36 SE9 30.36F Laguardia PTSUNNY 74 39 28 S13 30.36F J F K PTSUNNY 71 52 50 S9 30.39F Boston Logan MOSUNNY 64 56 75 E12 30.39S Ft. Lauderdale PTSUNNY 86 75 69 E17 30.05F HX 95 Chicago O`Hare LGT RAIN 67 63 87 SW10 29.91S FOG Chicago Midway CLOUDY 72 61 68 S16G28 29.91S Houston Bush PTSUNNY 70 62 76 NW8 30.09F Houston Hobby CLOUDY 71 62 73 NW10 30.07S Nashville PTSUNNY 79 59 50 S16G26 30.09F Atlanta PTSUNNY 77 64 64 E10 30.17F $$ GAZ044-118-TXZ119-213-NCZ071-DCZ001-MDZ014-506-PAZ021-071-NJZ106- NYZ176-178-MAZ106-OHZ011-021-055-MIZ076-KYZ091-ILZ014-INZ047- MNZ060-ONZ431-222000- ...Gateway Observations for Savannah International... CITY SKY/WX TMP DP RH WIND PRES REMARKS Savannah Arpt PTSUNNY 81 72 74 E12 30.18F Atlanta PTSUNNY 77 64 64 E10 30.17F Charlotte PTSUNNY 78 58 49 E9 30.26F Dallas DFW MOSUNNY 74 40 29 N22 30.14F Houston Bush PTSUNNY 70 62 76 NW8 30.09F Wash National PTSUNNY 76 55 48 S8 30.32F Wash Dulles MOSUNNY 75 58 55 S9 30.32F Baltimore PTSUNNY 74 47 38 SE6 30.33F Philadelphia PTSUNNY 75 47 36 SE5 30.35F Newark PTSUNNY 74 46 36 SE9 30.36F Laguardia PTSUNNY 74 39 28 S13 30.36F J F K PTSUNNY 71 52 50 S9 30.39F Boston MOSUNNY 64 56 75 E12 30.39S Pittsburg PTSUNNY 76 48 37 S10 30.22F Akron PTSUNNY 76 50 40 S12 30.19F Cleveland CLOUDY 78 53 41 S14 30.16F Cincinnati PTSUNNY 74 57 55 S14 30.11F Columbus SUNNY 76 53 44 S14G22 30.13F Detroit MOSUNNY 76 57 51 S17 30.08F Chicago O`Hare LGT RAIN 67 63 87 SW10 29.91S FOG Minneapolis MOSUNNY 62 36 37 W13 29.97F Indianapolis PTSUNNY 76 59 55 S17 30.02F Toronto Canada MOSUNNY 72 54 53 S12 30.16F $$

USA.gov is the U.S. government's official web portal to all federal, state and local government web resources and services.